Tracking 19245 objects as of 18-Aug-2018
HD Live streaming from Space Station
objects crossing your sky now

SL-16 DEB

Track SL-16 DEB now!
10-day predictions


NORAD ID: 25862
Int'l Code: 1999-039C
Perigee: 648.5 km
Apogee: 885.3 km
Inclination: 97.7 °
Period: 100.0 minutes
Semi major axis: 7137 km
RCS: 0.0838 m2 (small)
Launch date: July 17, 1999
Source: Commonwealth of Independent States (former USSR) (CIS)
Launch site: TYURATAM MISSILE AND SPACE COMPLEX (TTMTR)

Note: This is SATELLITE DEBRIS
aabbcc
Your satellite tracking list
Your tracking list is empty




NASA's NSSDC Master Catalog

Two Line Element Set (TLE):
1 25862U 99039C   18228.48863428 +.00000055 +00000-0 +27050-4 0  9995
2 25862 097.7190 069.3995 0165866 248.2889 110.0573 14.39607414000682
Source of the keplerian elements: AFSPC